Powrót do katalogu

STARLINK-36261

AktywnyŁącznośćVLEO
NORAD 67105·PAYLOAD·🇺🇸 United States

Wystrzelony Dec 15, 2025 z Cape Canaveral Space Force Station

Loading…

Następne Przeloty (najbliższe 24 godziny)

TLE

ŚwieżeSource: CelesTrak SupGP

Epoka: Sep 15, 2026, 03:28 UTC

1 67105C 25299D   26258.14493056  .00022574  00000+0  81778-3 0  2582
2 67105  43.0029 179.1189 0001530 274.9413 323.9589 15.27561530    19

Śledź STARLINK-36261 w czasie rzeczywistym z AllMySat

Download on the App Store